Theta_e
350 349 351 353 355 351 352 354 352 351 350 346 343 343 343 339 333 335 334 334 335 334 331 336 343 342 340 340 341 341 341 342 341 341 341 339 334 334
349 350 351 352 354 352 351 352 352 349 350 348 346 344 336 329 333 334 334 334 334 335 335 334 334 335 334 338 339 340 340 340 341 342 341 341 340 338
349 351 350 352 351 351 352 350 349 347 348 347 345 340 331 332 333 332 332 334 337 337 336 337 335 335 335 334 333 333 333 335 338 340 340 342 342 341
349 347 349 351 351 353 354 351 351 349 344 341 339 336 332 331 330 328 329 329 331 336 337 336 335 335 335 334 332 330 328 326 327 337 339 340 341 342
350 348 349 350 349 350 352 351 350 349 347 341 337 332 332 330 329 330 331 331 331 331 331 331 330 329 333 333 330 328 327 327 325 323 335 340 339 340
351 351 351 351 351 347 351 350 351 351 349 347 334 330 330 329 329 331 331 332 332 333 333 333 332 328 328 331 328 326 324 324 322 320 319 333 335 334
351 351 351 351 351 352 349 348 349 352 350 348 338 330 329 328 330 333 333 334 334 334 332 325 321 320 321 322 321 322 326 326 327 326 325 321 325 329
348 349 349 350 350 351 349 346 349 347 347 348 340 330 327 329 334 334 334 335 336 334 323 320 322 323 322 322 322 323 324 327 326 327 327 326 326 326
343 344 342 342 345 350 350 347 350 347 346 343 338 336 335 336 338 335 335 335 332 323 323 323 322 322 323 324 324 324 326 326 326 326 326 326 326 326
337 339 342 345 347 350 351 348 351 346 344 342 340 339 338 339 337 335 335 334 323 323 323 321 320 318 319 320 321 322 323 323 323 323 323 322 323 325
342 344 345 348 351 353 351 350 345 336 334 339 337 337 339 339 337 335 327 321 322 319 317 318 318 318 318 319 319 318 318 320 321 321 321 321 320 320
350 350 350 351 352 353 351 348 341 337 335 333 337 338 339 338 331 323 321 317 316 314 313 312 312 315 317 318 319 319 320 319 317 317 317 319 319 319
353 352 353 353 353 353 351 349 348 339 336 336 336 338 335 326 320 317 316 314 312 312 311 311 310 310 312 313 314 316 319 319 320 319 319 318 318 318
354 354 355 355 353 347 346 344 341 338 336 336 338 330 323 318 315 314 313 314 314 313 312 311 309 309 310 310 312 314 316 319 319 319 319 319 320 319
355 356 357 355 344 344 342 336 333 336 337 335 325 319 316 315 315 315 314 314 314 315 313 311 309 309 309 309 312 315 316 317 318 318 318 320 319 319
360 358 350 342 342 337 336 337 338 332 325 320 318 316 315 315 314 314 314 313 313 314 314 312 312 310 310 309 309 310 311 312 313 315 316 317 318 319
357 347 341 339 338 338 335 325 322 321 319 318 316 315 314 314 313 313 311 312 313 313 314 313 312 312 312 311 310 309 308 310 312 313 313 316 318 318
344 339 337 336 336 330 324 323 321 320 318 316 315 314 313 313 313 312 309 313 313 312 313 314 314 312 313 312 312 310 308 309 310 312 314 314 317 317
339 337 336 329 324 323 323 322 321 320 317 316 315 314 311 310 310 309 309 313 312 312 313 313 314 313 313 314 313 312 310 308 308 311 313 315 315 318
333 329 325 324 323 323 322 321 319 318 316 315 313 312 311 310 309 307 313 312 312 312 311 311 312 312 312 313 314 312 310 308 308 308 312 316 316 317
324 324 324 323 323 321 318 316 316 315 314 313 311 311 310 308 306 310 313 311 311 311 311 311 310 310 310 310 311 312 311 309 307 307 311 314 314 315
324 323 322 320 318 318 317 316 314 312 311 311 310 310 308 308 310 311 311 311 310 310 310 310 310 310 309 309 309 311 312 311 307 306 306 310 311 311
320 319 318 318 316 316 315 312 311 311 310 310 309 307 307 308 310 310 310 310 309 309 310 310 310 309 309 309 309 308 310 311 309 307 306 307 311 312
Wind_Speed
12 11 11 9 9 9 10 10 9 7 6 4 5 5 5 6 4 3 2 1 3 3 3 7 9 10 12 13 14 14 15 16 19 22 24 34 39 37
15 15 13 11 11 11 12 12 11 10 9 6 7 7 7 4 3 4 6 6 5 5 4 5 6 8 9 10 14 17 19 20 21 22 23 26 30 36
19 17 16 13 13 13 12 13 13 12 12 11 12 11 10 6 6 6 6 7 8 7 9 11 12 13 13 14 15 16 18 19 21 23 27 28 28 31
20 20 17 15 15 16 15 15 15 13 11 11 11 12 12 10 9 9 9 11 11 12 14 16 18 19 19 20 22 23 24 24 24 22 25 27 32 33
20 20 18 18 18 19 19 17 16 16 15 14 13 13 13 12 11 11 10 11 13 14 16 19 20 22 25 26 28 29 30 31 31 30 29 27 25 31
23 21 21 21 20 19 19 20 19 18 17 16 15 14 14 15 15 15 16 17 18 18 22 22 24 25 25 27 29 30 29 24 24 26 32 33 31 28
25 25 26 25 23 22 22 22 21 21 21 19 15 16 17 18 18 20 21 22 26 29 29 29 24 23 24 25 24 22 20 19 18 19 22 28 33 33
32 31 30 28 27 26 25 24 22 20 20 16 16 18 20 19 21 22 23 27 33 34 32 29 21 21 18 18 17 19 20 20 19 18 18 20 22 25
35 34 32 32 30 28 27 27 25 23 21 12 15 22 24 23 23 22 25 28 32 29 26 31 25 25 20 18 15 18 19 21 24 24 25 27 27 25
38 36 35 33 32 28 24 24 20 20 14 4 13 25 27 22 23 22 25 31 30 26 26 34 31 29 25 22 22 23 27 27 27 28 28 29 31 33
34 36 36 34 35 33 26 22 11 23 25 22 27 33 27 24 27 23 23 25 28 26 18 20 24 28 28 23 15 17 23 26 29 31 29 30 30 33
37 37 36 37 37 36 33 27 14 19 24 28 33 26 27 25 19 19 18 15 11 12 14 20 21 23 22 15 13 25 21 19 25 29 30 29 27 30
38 38 39 39 38 35 40 38 34 27 29 27 26 24 20 15 14 10 6 3 4 8 14 18 20 21 20 30 33 27 21 21 20 22 24 26 27 29
34 34 35 33 24 24 26 20 20 20 23 19 23 19 13 11 9 7 3 1 3 7 11 15 19 22 25 30 31 31 29 23 21 22 22 22 23 24
32 30 31 28 23 25 18 15 12 15 19 19 16 12 11 12 11 7 5 5 7 8 10 14 17 20 23 25 29 30 30 29 15 19 23 25 24 24
25 30 27 28 17 10 7 15 17 15 13 12 12 12 13 12 10 10 9 10 10 7 7 10 13 19 24 23 24 27 26 25 26 26 27 24 25 27
29 26 25 15 12 16 18 17 15 13 12 11 9 9 10 11 10 9 11 10 9 11 12 9 11 14 20 24 27 26 31 30 28 30 29 28 25 25
26 22 13 11 18 18 18 16 13 11 9 9 8 6 7 8 9 10 12 10 10 14 16 15 15 16 19 22 24 30 35 35 36 33 32 32 30 26
12 14 14 18 16 17 15 10 10 11 9 7 7 4 5 6 7 10 10 8 10 12 14 14 15 17 21 20 26 28 31 36 39 36 32 31 32 30
15 19 17 16 15 14 10 9 11 10 10 9 9 7 7 10 10 7 8 8 9 12 13 13 16 17 21 24 26 26 29 34 35 36 35 31 29 28
13 15 16 14 12 10 10 10 6 5 6 9 8 6 11 12 9 7 7 8 10 12 14 12 12 17 21 23 26 26 28 30 33 35 29 28 27 32
14 13 13 10 9 8 6 4 1 3 6 6 5 10 11 8 5 6 8 8 12 17 18 16 12 16 19 19 25 25 27 31 33 34 30 21 22 26
14 10 10 7 5 3 1 2 3 2 4 5 7 8 7 7 7 6 7 10 15 16 16 16 12 15 17 22 22 25 26 28 33 40 38 34 19 16
Wind_Direction
257 261 269 272 278 281 282 294 300 284 289 259 230 265 273 283 278 239 285 213 230 294 285 244 237 244 252 254 257 258 254 251 251 247 245 242 241 241
260 260 264 265 276 289 288 290 293 283 275 269 262 269 277 270 253 237 243 247 255 276 295 279 267 273 275 266 260 263 266 263 254 249 246 244 244 243
258 261 263 268 269 276 285 289 287 277 276 285 294 291 296 299 298 297 278 267 270 277 288 279 273 276 273 269 268 269 271 273 268 259 251 246 244 244
263 261 264 269 273 279 285 293 294 281 274 277 275 270 267 260 263 276 285 285 283 279 275 275 279 279 274 274 275 276 276 275 271 265 257 252 249 247
255 258 264 268 275 279 282 281 286 280 277 282 284 270 259 261 270 278 281 282 285 287 285 283 282 282 275 276 283 286 283 279 272 262 257 254 255 251
254 257 261 266 272 281 283 281 279 274 267 270 275 265 262 269 275 284 290 291 296 300 301 300 294 289 275 275 282 284 283 281 275 262 253 252 255 256
260 261 262 267 272 276 275 272 272 269 263 260 268 266 270 277 283 292 297 306 310 310 308 304 300 291 286 282 279 276 273 278 277 266 260 257 255 256
261 264 266 269 268 269 267 261 262 260 263 270 280 273 272 275 284 290 301 309 310 312 311 307 310 304 300 289 279 273 275 267 260 264 256 253 255 256
264 266 269 268 270 272 269 262 254 243 238 245 272 274 275 277 282 289 299 304 306 310 306 307 311 306 304 297 286 281 275 270 271 270 266 266 261 258
266 268 269 271 272 272 271 256 237 213 203 272 289 278 274 276 286 289 296 301 304 306 307 300 307 304 299 288 278 273 272 273 275 274 270 268 266 263
269 268 266 265 264 262 254 243 199 351 317 253 249 263 262 278 280 290 298 303 305 312 310 310 323 319 315 313 301 276 266 267 267 269 268 266 271 269
270 270 269 266 264 261 254 229 181 293 264 236 251 259 270 277 280 292 297 303 313 338 330 334 343 337 327 333 323 311 300 278 269 268 269 267 265 265
265 265 268 267 266 263 255 250 254 269 240 249 245 250 256 267 279 280 275 285 13 15 351 351 353 348 337 324 325 329 320 315 298 283 271 268 268 264
269 268 267 265 258 213 217 235 253 235 232 225 226 227 241 234 209 193 192 284 338 355 354 354 352 352 345 334 329 328 324 316 311 299 286 280 272 264
264 266 257 249 207 207 233 249 208 198 205 204 210 211 200 196 196 207 228 259 285 304 339 351 354 354 356 345 332 341 334 325 328 319 295 289 284 275
258 252 221 192 199 208 193 172 177 177 182 178 182 188 195 201 209 232 245 272 285 279 295 327 351 358 359 1 2 357 349 336 332 321 306 298 288 282
240 201 181 178 176 168 161 153 153 155 162 171 183 189 199 209 221 250 277 279 292 303 294 291 323 342 348 351 1 352 352 348 340 328 321 310 294 290
178 164 167 170 170 155 156 154 160 166 176 175 174 190 218 230 248 271 287 290 299 303 295 296 302 322 334 343 350 356 357 347 344 334 326 315 305 300
166 149 159 148 156 150 153 165 178 177 190 193 211 223 242 243 272 284 270 286 293 300 308 310 312 319 327 327 339 349 349 350 344 340 330 323 315 309
140 135 143 144 150 155 164 179 180 188 203 209 221 237 258 278 292 272 252 273 293 300 313 321 315 314 324 322 325 341 348 349 349 341 331 320 314 316
128 133 137 141 147 150 148 160 165 211 223 222 222 256 281 293 290 255 262 273 293 304 305 310 329 331 328 327 328 329 341 350 353 352 339 328 329 319
123 128 123 120 136 140 135 147 213 228 205 227 271 287 288 296 291 270 272 288 298 302 302 305 321 329 324 324 327 328 330 341 352 355 3 344 326 317
116 111 118 120 121 111 15 138 117 279 259 270 283 277 278 289 280 275 279 307 312 314 304 303 314 322 330 326 320 331 328 340 349 354 0 2 344 320